sat.trackr.live / text

‹ back to catalog

STARLINK-30242

NORAD 57739 · 2023-131H

PAYLOAD ACTIVE UNKNOWN

§ Identity

Operator
Country
US
Launch date
2023-09-01
Launch site
AFETR
Launch vehicle
Mass (kg)
RCS (m²)

Purposes: comms

External: N2YO · Heavens-Above · Gunter

§ Orbital elements

Epoch: 2026-09-20T00:38:24.770976Z

Period
94.27 min
Inclination
43.0016°
Eccentricity
0.0001708
Mean motion
15.27580208 rev/d
Perigee alt
481.9 km
Apogee alt
484.2 km
Semi-major
6,861.2 km
B*
1.1031e-4
RAAN
126.1404°
Arg perigee
256.8938°
Mean anomaly
103.1723°
Rev number
16,997

§ Raw data

STARLINK-302421 57739U 23131H   26263.02667559  .00002774  00000+0  11031-3 0  99982 57739  43.0016 126.1404 0001708 256.8938 103.1723 15.27580208169979

JSON: /api/v1/satellites/57739 · /tle

For live sub-satellite position, see the globe view (requires WebGL).

§ Visibility from observer

Set your observer location to see the next 7 days of passes ≥ 10°. The values pass through the URL so the page stays shareable.

No JS? Fill the form by hand. The geolocation button needs JavaScript.